Lid_Strength_Index
4 4 4 3 3 2 2 1 2 2 3 4 6 6 9 10 10 10 10 10 10 9 9 9 10 11 11 11 11 10 11 12 12 9 11 12 14 14 14 12 12 12 13
5 5 4 4 3 2 2 2 2 3 3 3 5 7 10 11 12 11 11 11 10 10 10 10 11 11 12 12 12 12 12 13 13 13 10 11 12 13 14 13 12 12 13
6 5 5 4 3 2 2 2 2 3 2 6 9 11 11 12 12 12 12 12 11 11 11 12 12 12 12 13 14 14 13 13 13 14 13 14 14 14 11 14 13 12 12
5 5 6 5 3 4 3 2 2 3 6 8 9 9 10 12 13 13 12 12 11 11 11 12 12 13 14 14 14 14 14 14 15 14 14 14 14 14 15 12 14 13 12
6 7 7 8 9 7 7 7 7 6 7 8 9 10 13 13 13 13 12 12 13 13 13 13 13 14 15 15 15 15 15 15 15 15 14 14 15 15 15 15 15 14 13
8 10 10 9 9 9 9 9 10 11 11 11 11 12 13 13 13 13 13 14 15 14 14 15 15 15 16 16 16 15 15 15 15 15 16 16 16 16 16 16 16 16 14
10 11 11 10 11 10 11 11 11 12 12 12 13 13 13 12 12 13 14 15 16 16 15 15 16 16 16 16 16 16 16 16 16 16 16 15 15 15 15 16 16 16 15
10 10 11 11 11 11 11 11 11 12 12 12 12 11 11 12 13 14 14 15 16 16 16 16 16 16 16 16 16 16 16 16 16 16 16 16 16 16 16 16 17 18 16
10 11 11 11 12 12 12 12 12 12 12 12 13 13 13 14 15 16 16 16 16 16 16 16 17 16 16 16 17 17 16 15 15 16 16 16 17 16 15 15 16 17 18
12 12 12 12 12 12 13 13 12 13 13 13 14 14 15 15 16 16 17 16 16 16 17 17 17 17 17 17 16 16 16 16 16 16 16 16 16 16 15 15 15 15 16
13 13 13 13 13 13 14 14 14 14 14 15 15 16 16 16 16 17 17 17 17 17 17 17 17 18 18 16 16 16 16 17 17 17 16 16 16 16 15 15 15 16 16
13 14 14 14 14 15 15 15 15 16 16 16 16 17 17 17 18 17 17 17 17 17 18 18 18 17 16 16 16 17 17 17 17 17 17 16 15 16 15 15 16 16 16
14 14 14 15 15 15 16 16 16 17 17 17 18 18 18 18 18 18 18 17 17 18 17 17 17 17 17 17 17 17 16 16 17 17 16 16 16 16 16 16 16 16 16
14 15 15 15 14 15 16 16 17 17 17 18 18 19 19 19 18 18 17 17 17 17 17 16 17 17 17 17 16 17 16 16 16 16 16 16 16 17 16 16 16 16 16
14 15 15 16 16 16 17 17 17 18 18 19 19 19 19 18 18 18 17 17 17 17 16 17 17 16 16 16 16 16 16 16 16 16 16 16 16 16 15 16 16 15 16
14 14 15 15 16 16 17 17 18 18 18 19 19 18 18 18 18 18 18 17 17 17 17 17 16 16 15 13 14 16 16 16 16 16 16 16 16 16 16 15 14 14 16
13 13 14 15 15 16 16 17 17 17 18 18 18 18 18 18 18 17 17 18 18 18 18 17 16 16 15 13 13 14 15 16 16 16 16 16 16 16 17 16 14 14 15
13 12 13 13 14 15 15 16 17 17 17 18 18 18 18 18 18 18 18 18 18 18 18 17 17 17 16 14 13 14 15 15 16 16 16 17 17 17 16 15 15 17 17
11 11 11 12 14 15 16 16 17 17 17 17 18 18 18 18 18 18 19 18 18 18 18 17 17 17 16 15 14 14 15 16 16 16 16 16 17 16 14 15 18 18 18
11 11 12 12 14 15 15 16 17 17 17 17 17 17 17 18 18 18 18 18 17 17 17 17 17 17 17 16 15 15 15 16 17 17 16 16 16 15 13 16 19 20 19
11 13 13 14 15 15 15 16 16 17 17 17 17 18 18 18 17 17 17 18 18 18 18 17 17 17 17 17 15 15 16 17 17 17 17 16 15 14 14 15 19 18 18
13 14 14 15 15 15 14 16 16 16 17 17 18 18 18 17 17 18 18 18 18 19 18 19 19 18 18 17 16 15 15 15 17 17 16 16 15 16 16 17 16 17 21
15 15 16 17 16 16 15 16 16 17 17 17 17 18 17 17 18 18 18 19 19 19 20 19 20 20 19 18 17 16 15 15 16 16 16 16 17 18 20 19 18 22 23
16 17 17 17 18 17 16 15 16 17 16 17 18 18 19 19 19 18 19 19 20 20 20 20 20 20 19 18 18 17 17 16 16 17 20 18 19 20 21 22 22 23 23
19 18 18 17 18 17 17 16 16 15 16 17 19 19 18 19 20 20 20 20 20 20 21 21 20 20 20 18 16 15 16 16 18 22 22 22 23 23 23 24 24 24 23
20 20 19 17 16 16 16 16 15 15 17 19 19 19 20 20 21 21 22 17 17 16 16 16 17 18 17 16 16 15 15 15 17 23 24 24 24 25 25 25 25 25 25